Time,TemperatureF,DewpointF,PressureIn,WindDirection,WindDirectionDegrees,WindSpeedMPH,WindSpeedGustMPH,Humidity,HourlyPrecipIn,Conditions,Clouds,dailyrainin,SoftwareType,DateUTC
2013-08-09 00:02:00,69.0,62.0,-100.00,South,190,4.0,5.0,76,0.00,,,-99.99,,2013-08-09 05:02:00,
2013-08-09 00:11:00,69.0,62.0,-100.00,South,190,3.0,4.0,78,0.00,,,-99.99,,2013-08-09 05:11:00,
2013-08-09 00:32:00,69.0,62.0,-100.00,SSE,165,3.0,4.0,78,0.00,,,-99.99,,2013-08-09 05:32:00,
2013-08-09 00:43:00,69.0,62.0,-100.00,South,170,4.0,5.0,79,0.00,,,-99.99,,2013-08-09 05:43:00,
2013-08-09 00:52:00,68.0,62.0,-100.00,South,175,4.0,5.0,79,0.00,,,-99.99,,2013-08-09 05:52:00,
2013-08-09 01:11:00,67.0,61.0,-100.00,South,185,4.0,6.0,81,0.00,,,-99.99,,2013-08-09 06:11:00,
2013-08-09 01:32:00,68.0,62.0,-100.00,SSW,195,4.0,6.0,81,0.00,,,-99.99,,2013-08-09 06:32:00,
2013-08-09 01:43:00,67.0,61.0,-100.00,South,185,4.0,5.0,81,0.00,,,-99.99,,2013-08-09 06:43:00,
2013-08-09 01:52:00,67.0,62.0,-100.00,South,190,3.0,4.0,82,0.00,,,-99.99,,2013-08-09 06:52:00,
2013-08-09 02:12:00,67.0,61.0,-100.00,SW,215,2.0,3.0,82,0.00,,,-99.99,,2013-08-09 07:12:00,
2013-08-09 02:22:00,67.0,61.0,-100.00,SW,215,2.0,3.0,82,0.00,,,-99.99,,2013-08-09 07:22:00,
2013-08-09 02:33:00,67.0,61.0,-100.00,SSW,210,3.0,4.0,83,0.00,,,-99.99,,2013-08-09 07:33:00,
2013-08-09 02:43:00,67.0,61.0,-100.00,SW,215,2.0,2.0,83,0.00,,,-99.99,,2013-08-09 07:43:00,
2013-08-09 03:12:00,65.0,60.0,-100.00,SSW,210,1.0,1.0,84,0.00,,,-99.99,,2013-08-09 08:12:00,
2013-08-09 03:22:00,65.0,61.0,-100.00,NW,325,1.0,1.0,84,0.00,,,-99.99,,2013-08-09 08:22:00,
2013-08-09 03:32:00,65.0,60.0,-100.00,NW,315,0.0,1.0,84,0.00,,,-99.99,,2013-08-09 08:32:00,
2013-08-09 03:43:00,65.0,60.0,-100.00,ENE,65,0.0,1.0,85,0.00,,,-99.99,,2013-08-09 08:43:00,
2013-08-09 04:02:00,65.0,61.0,-100.00,SSW,200,3.0,4.0,85,0.00,,,-99.99,,2013-08-09 09:02:00,
2013-08-09 04:12:00,65.0,61.0,-100.00,South,180,2.0,3.0,85,0.00,,,-99.99,,2013-08-09 09:12:00,
2013-08-09 04:22:00,65.0,60.0,-100.00,South,180,1.0,3.0,85,0.00,,,-99.99,,2013-08-09 09:22:00,
2013-08-09 04:32:00,65.0,60.0,-100.00,SSW,200,1.0,3.0,85,0.00,,,-99.99,,2013-08-09 09:32:00,
2013-08-09 04:43:00,65.0,61.0,-100.00,SSW,205,3.0,4.0,85,0.00,,,-99.99,,2013-08-09 09:43:00,
2013-08-09 04:52:00,65.0,60.0,-100.00,SSW,210,3.0,4.0,85,0.00,,,-99.99,,2013-08-09 09:52:00,
2013-08-09 05:01:00,65.0,60.0,-100.00,SSW,210,3.0,4.0,85,0.00,,,-99.99,,2013-08-09 10:01:00,
2013-08-09 05:12:00,64.0,60.0,-100.00,WSW,245,1.0,2.0,85,0.00,,,-99.99,,2013-08-09 10:12:00,
2013-08-09 05:22:00,64.0,60.0,-100.00,WNW,300,2.0,3.0,86,0.00,,,-99.99,,2013-08-09 10:22:00,
2013-08-09 05:32:00,64.0,60.0,-100.00,WNW,300,2.0,3.0,86,0.00,,,-99.99,,2013-08-09 10:32:00,
2013-08-09 05:43:00,64.0,60.0,-100.00,WNW,290,2.0,2.0,86,0.00,,,-99.99,,2013-08-09 10:43:00,
2013-08-09 06:02:00,63.0,60.0,-100.00,West,280,1.0,2.0,86,0.00,,,-99.99,,2013-08-09 11:02:00,
2013-08-09 06:11:00,63.0,59.0,-100.00,West,260,2.0,3.0,86,0.00,,,-99.99,,2013-08-09 11:11:00,
2013-08-09 06:33:00,63.0,60.0,-100.00,West,265,2.0,4.0,86,0.00,,,-99.99,,2013-08-09 11:33:00,
2013-08-09 06:43:00,64.0,60.0,-100.00,West,260,1.0,4.0,86,0.00,,,-99.99,,2013-08-09 11:43:00,
2013-08-09 06:53:00,64.0,60.0,-100.00,West,260,1.0,4.0,86,0.00,,,-99.99,,2013-08-09 11:53:00,
2013-08-09 07:02:00,64.0,60.0,-100.00,West,275,1.0,2.0,86,0.00,,,-99.99,,2013-08-09 12:02:00,
2013-08-09 07:12:00,64.0,60.0,-100.00,NW,305,2.0,2.0,86,0.00,,,-99.99,,2013-08-09 12:12:00,
2013-08-09 07:32:00,65.0,62.0,-100.00,WNW,300,1.0,2.0,86,0.00,,,-99.99,,2013-08-09 12:32:00,
2013-08-09 07:43:00,67.0,63.0,-100.00,West,265,1.0,3.0,86,0.00,,,-99.99,,2013-08-09 12:43:00,
2013-08-09 08:23:00,71.0,66.0,-100.00,West,275,2.0,4.0,85,0.00,,,-99.99,,2013-08-09 13:23:00,
2013-08-09 08:32:00,72.0,67.0,-100.00,WNW,285,4.0,6.0,83,0.00,,,-99.99,,2013-08-09 13:32:00,
2013-08-09 08:43:00,72.0,65.0,-100.00,WNW,285,5.0,7.0,79,0.00,,,-99.99,,2013-08-09 13:43:00,
2013-08-09 08:52:00,72.0,65.0,-100.00,West,280,4.0,7.0,77,0.00,,,-99.99,,2013-08-09 13:52:00,
2013-08-09 09:11:00,73.0,65.0,-100.00,WNW,290,4.0,6.0,76,0.00,,,-99.99,,2013-08-09 14:11:00,
2013-08-09 09:22:00,74.0,65.0,-100.00,WNW,285,6.0,9.0,73,0.00,,,-99.99,,2013-08-09 14:22:00,
2013-08-09 09:33:00,74.0,65.0,-100.00,WNW,285,6.0,9.0,73,0.00,,,-99.99,,2013-08-09 14:33:00,
2013-08-09 09:43:00,76.0,64.0,-100.00,WNW,290,6.0,10.0,64,0.00,,,-99.99,,2013-08-09 14:43:00,
2013-08-09 10:02:00,76.0,62.0,-100.00,WNW,300,8.0,10.0,62,0.00,,,-99.99,,2013-08-09 15:02:00,
2013-08-09 10:11:00,77.0,62.0,-100.00,NW,305,7.0,9.0,60,0.00,,,-99.99,,2013-08-09 15:11:00,
2013-08-09 10:33:00,77.0,60.0,-100.00,NW,310,7.0,11.0,55,0.00,,,-99.99,,2013-08-09 15:33:00,
2013-08-09 10:44:00,78.0,60.0,-100.00,NW,310,7.0,10.0,54,0.00,,,-99.99,,2013-08-09 15:44:00,
2013-08-09 10:53:00,78.0,60.0,-100.00,West,280,4.0,10.0,54,0.00,,,-99.99,,2013-08-09 15:53:00,
2013-08-09 11:01:00,79.0,62.0,-100.00,WNW,290,4.0,8.0,56,0.00,,,-99.99,,2013-08-09 16:01:00,
2013-08-09 11:11:00,79.0,60.0,-100.00,WNW,285,7.0,11.0,53,0.00,,,-99.99,,2013-08-09 16:11:00,
2013-08-09 11:32:00,79.0,61.0,-100.00,NW,305,8.0,10.0,53,0.00,,,-99.99,,2013-08-09 16:32:00,
2013-08-09 11:43:00,80.0,61.0,-100.00,WNW,300,8.0,12.0,51,0.00,,,-99.99,,2013-08-09 16:43:00,
2013-08-09 12:11:00,81.0,60.0,-100.00,WNW,290,6.0,12.0,48,0.00,,,-99.99,,2013-08-09 17:11:00,
2013-08-09 12:22:00,81.0,60.0,-100.00,WNW,290,6.0,12.0,48,0.00,,,-99.99,,2013-08-09 17:22:00,
2013-08-09 12:33:00,81.0,59.0,-100.00,WNW,300,7.0,13.0,48,0.00,,,-99.99,,2013-08-09 17:33:00,
2013-08-09 12:43:00,82.0,60.0,-100.00,NW,320,6.0,11.0,48,0.00,,,-99.99,,2013-08-09 17:43:00,
2013-08-09 12:52:00,82.0,61.0,-100.00,WNW,300,6.0,11.0,47,0.00,,,-99.99,,2013-08-09 17:52:00,
2013-08-09 13:11:00,83.0,61.0,-100.00,WNW,300,4.0,12.0,48,0.00,,,-99.99,,2013-08-09 18:11:00,
2013-08-09 13:22:00,83.0,61.0,-100.00,WNW,300,4.0,12.0,48,0.00,,,-99.99,,2013-08-09 18:22:00,
2013-08-09 13:32:00,83.0,61.0,-100.00,NW,310,5.0,9.0,47,0.00,,,-99.99,,2013-08-09 18:32:00,
2013-08-09 13:43:00,82.0,60.0,-100.00,WNW,295,6.0,11.0,48,0.00,,,-99.99,,2013-08-09 18:43:00,
2013-08-09 14:11:00,81.0,60.0,-100.00,NNW,340,6.0,11.0,49,0.00,,,-99.99,,2013-08-09 19:11:00,
2013-08-09 14:22:00,81.0,60.0,-100.00,NNW,340,6.0,11.0,49,0.00,,,-99.99,,2013-08-09 19:22:00,
2013-08-09 14:32:00,81.0,61.0,-100.00,NNW,335,6.0,11.0,50,0.00,,,-99.99,,2013-08-09 19:32:00,
2013-08-09 14:43:00,82.0,61.0,-100.00,NW,325,4.0,9.0,49,0.00,,,-99.99,,2013-08-09 19:43:00,
2013-08-09 15:11:00,81.0,61.0,-100.00,NNW,345,4.0,7.0,49,0.00,,,-99.99,,2013-08-09 20:11:00,
2013-08-09 15:22:00,79.0,61.0,-100.00,NNW,340,7.0,11.0,53,0.00,,,-99.99,,2013-08-09 20:22:00,
2013-08-09 15:32:00,79.0,62.0,-100.00,NW,305,6.0,14.0,57,0.00,,,-99.99,,2013-08-09 20:32:00,
2013-08-09 15:43:00,79.0,64.0,-100.00,WNW,300,6.0,9.0,59,0.00,,,-99.99,,2013-08-09 20:43:00,
2013-08-09 15:52:00,81.0,63.0,-100.00,NW,315,5.0,8.0,54,0.00,,,-99.99,,2013-08-09 20:52:00,
2013-08-09 16:12:00,81.0,63.0,-100.00,NW,325,7.0,11.0,53,0.00,,,-99.99,,2013-08-09 21:12:00,
2013-08-09 16:22:00,81.0,63.0,-100.00,NNW,340,7.0,12.0,54,0.00,,,-99.99,,2013-08-09 21:22:00,
2013-08-09 16:33:00,80.0,63.0,-100.00,North,0,8.0,12.0,54,0.00,,,-99.99,,2013-08-09 21:33:00,
2013-08-09 16:43:00,80.0,63.0,-100.00,North,0,7.0,10.0,57,0.00,,,-99.99,,2013-08-09 21:43:00,
2013-08-09 16:52:00,80.0,63.0,-100.00,North,355,7.0,11.0,57,0.00,,,-99.99,,2013-08-09 21:52:00,
2013-08-09 17:01:00,80.0,63.0,-100.00,North,355,7.0,11.0,57,0.00,,,-99.99,,2013-08-09 22:01:00,
2013-08-09 17:11:00,80.0,63.0,-100.00,North,0,7.0,9.0,55,0.00,,,-99.99,,2013-08-09 22:11:00,
2013-08-09 17:22:00,80.0,64.0,-100.00,North,0,2.0,8.0,57,0.00,,,-99.99,,2013-08-09 22:22:00,
2013-08-09 17:32:00,80.0,64.0,-100.00,North,0,2.0,8.0,57,0.00,,,-99.99,,2013-08-09 22:32:00,
2013-08-09 17:42:00,80.0,64.0,-100.00,North,0,4.0,7.0,57,0.00,,,-99.99,,2013-08-09 22:42:00,
2013-08-09 17:52:00,80.0,64.0,-100.00,North,0,4.0,7.0,57,0.00,,,-99.99,,2013-08-09 22:52:00,
2013-08-09 18:01:00,80.0,64.0,-100.00,North,355,5.0,7.0,59,0.00,,,-99.99,,2013-08-09 23:01:00,
2013-08-09 18:11:00,79.0,63.0,-100.00,North,0,6.0,9.0,59,0.00,,,-99.99,,2013-08-09 23:11:00,
2013-08-09 18:32:00,78.0,64.0,-100.00,North,0,7.0,10.0,61,0.00,,,-99.99,,2013-08-09 23:32:00,
2013-08-09 18:43:00,78.0,64.0,-100.00,North,0,6.0,11.0,63,0.00,,,-99.99,,2013-08-09 23:43:00,
2013-08-09 18:52:00,77.0,64.0,-100.00,North,0,4.0,10.0,63,0.00,,,-99.99,,2013-08-09 23:52:00,
2013-08-09 19:11:00,76.0,63.0,-100.00,North,0,6.0,11.0,65,0.00,,,-99.99,,2013-08-10 00:11:00,
2013-08-09 19:22:00,76.0,63.0,-100.00,North,0,6.0,11.0,65,0.00,,,-99.99,,2013-08-10 00:22:00,
2013-08-09 19:33:00,76.0,63.0,-100.00,North,0,7.0,9.0,64,0.00,,,-99.99,,2013-08-10 00:33:00,
2013-08-09 19:43:00,75.0,63.0,-100.00,North,0,6.0,8.0,65,0.00,,,-99.99,,2013-08-10 00:43:00,
2013-08-09 19:52:00,74.0,63.0,-100.00,North,0,5.0,7.0,66,0.00,,,-99.99,,2013-08-10 00:52:00,
2013-08-09 20:11:00,74.0,62.0,-100.00,North,5,6.0,7.0,67,0.00,,,-99.99,,2013-08-10 01:11:00,
2013-08-09 20:22:00,73.0,62.0,-100.00,North,0,6.0,7.0,67,0.00,,,-99.99,,2013-08-10 01:22:00,
2013-08-09 20:32:00,72.0,62.0,-100.00,North,5,6.0,7.0,69,0.00,,,-99.99,,2013-08-10 01:32:00,
2013-08-09 20:42:00,72.0,62.0,-100.00,North,0,4.0,7.0,70,0.00,,,-99.99,,2013-08-10 01:42:00,
2013-08-09 21:03:00,72.0,62.0,-100.00,North,0,6.0,7.0,70,0.00,,,-99.99,,2013-08-10 02:03:00,
2013-08-09 21:11:00,70.0,62.0,-100.00,North,10,6.0,7.0,74,0.00,,,-99.99,,2013-08-10 02:11:00,
2013-08-09 21:21:00,69.0,62.0,-100.00,North,5,6.0,7.0,75,0.00,,,-99.99,,2013-08-10 02:21:00,
2013-08-09 21:32:00,69.0,62.0,-100.00,North,5,6.0,7.0,75,0.00,,,-99.99,,2013-08-10 02:32:00,
2013-08-09 21:42:00,69.0,61.0,-100.00,North,10,7.0,8.0,76,0.00,,,-99.99,,2013-08-10 02:42:00,
2013-08-09 21:52:00,69.0,61.0,-100.00,North,5,7.0,8.0,76,0.00,,,-99.99,,2013-08-10 02:52:00,
2013-08-09 22:01:00,69.0,61.0,-100.00,North,5,7.0,8.0,76,0.00,,,-99.99,,2013-08-10 03:01:00,
2013-08-09 22:11:00,69.0,61.0,-100.00,North,0,6.0,7.0,75,0.00,,,-99.99,,2013-08-10 03:11:00,
2013-08-09 22:21:00,69.0,61.0,-100.00,North,355,5.0,6.0,74,0.00,,,-99.99,,2013-08-10 03:21:00,
2013-08-09 22:32:00,69.0,61.0,-100.00,North,355,5.0,6.0,74,0.00,,,-99.99,,2013-08-10 03:32:00,
2013-08-09 22:42:00,69.0,60.0,-100.00,NNW,340,4.0,6.0,74,0.00,,,-99.99,,2013-08-10 03:42:00,
2013-08-09 22:52:00,68.0,60.0,-100.00,NNW,340,4.0,6.0,75,0.00,,,-99.99,,2013-08-10 03:52:00,
2013-08-09 23:02:00,68.0,60.0,-100.00,NNW,340,4.0,6.0,75,0.00,,,-99.99,,2013-08-10 04:02:00,
2013-08-09 23:12:00,68.0,60.0,-100.00,NNW,335,4.0,6.0,75,0.00,,,-99.99,,2013-08-10 04:12:00,
2013-08-09 23:22:00,68.0,59.0,-100.00,NNW,345,6.0,7.0,74,0.00,,,-99.99,,2013-08-10 04:22:00,
2013-08-09 23:32:00,68.0,59.0,-100.00,NNW,345,6.0,7.0,74,0.00,,,-99.99,,2013-08-10 04:32:00,
2013-08-09 23:43:00,68.0,59.0,-100.00,North,0,6.0,9.0,72,0.00,,,-99.99,,2013-08-10 04:43:00,